******************************************************************************* JPL/HORIZONS (2012 VP113) 2025-Dec-12 17:56:17 Rec #:50097743 (+COV) Soln.date: 2024-Dec-10_07:50:08 # obs: 55 (2007-2024) IAU76/J2000 helio. ecliptic osc. elements (au, days, deg., period=Julian yrs): EPOCH= 2456596.5 ! 2013-Oct-31.00 (TDB) Residual RMS= .12756 EC= .6979453502062112 QR= 80.5977917296387 TP= 2444141.0180589431 OM= 90.8992319830878 W= 294.2134647718661 IN= 24.01159356443002 A= 266.8318192905238 MA= 2.816489810293489 ADIST= 453.0658468514088 PER= 4358.77678 N= .000226125 ANGMOM= .201235625 DAN= 106.39477 DDN= 191.73564 L= 27.1103773 B= -21.7848345 MOID= 79.67389679 TP= 1979-Sep-24.5180589431 Asteroid physical parameters (km, seconds, rotational period in hours): GM= n.a. RAD= n.a. ROTPER= n.a. H= 4.05 G= .150 B-V= n.a. ALBEDO= n.a. STYP= n.a. ASTEROID comments: 1: soln ref.= JPL#11, OCC=3 2: source=ORB ******************************************************************************* ******************************************************************************* Ephemeris / WWW_USER Fri Dec 12 17:56:18 2025 Pasadena, USA / Horizons ******************************************************************************* Target body name: (2012 VP113) {source: JPL#11} Center body name: Solar System Barycenter (0) {source: DE441} Center-site name: BODY CENTER ******************************************************************************* Start time : A.D. 2025-May-05 00:00:00.0000 TDB Stop time : A.D. 2025-May-06 00:00:00.0000 TDB Step-size : 1 calendar years ******************************************************************************* Center geodetic : 0.0, 0.0, 0.0 {E-lon(deg),Lat(deg),Alt(km)} Center cylindric: 0.0, 0.0, 0.0 {E-lon(deg),Dxy(km),Dz(km)} Center radii : (undefined) Keplerian GM : 2.9630927493968080E-04 au^3/d^2 Small perturbers: Yes {source: SB441-N16} Output units : AU-D, deg, Julian Day Number (Tp) Calendar mode : Mixed Julian/Gregorian Output type : GEOMETRIC osculating elements Output format : 10 Reference frame : Ecliptic of J2000.0 ******************************************************************************* Initial IAU76/J2000 heliocentric ecliptic osculating elements (au, days, deg.): EPOCH= 2456596.5 ! 2013-Oct-31.00 (TDB) Residual RMS= .12756 EC= .6979453502062112 QR= 80.5977917296387 TP= 2444141.0180589431 OM= 90.8992319830878 W= 294.2134647718661 IN= 24.01159356443002 Equivalent ICRF heliocentric cartesian coordinates (au, au/d): X= 5.183862866896224E+01 Y= 6.478731474814431E+01 Z= 2.461882185949568E+00 VX=-1.379496213825677E-03 VY= 1.539201756344867E-03 VZ= 1.322270393387428E-03 Asteroid physical parameters (km, seconds, rotational period in hours): GM= n.a. RAD= n.a. ROTPER= n.a. H= 4.05 G= .150 B-V= n.a. ALBEDO= n.a. STYP= n.a. ******************************************************************************* JDTDB EC QR IN OM W Tp N MA TA A AD PR ******************************************************************************* $$SOE 2460800.500000000 = A.D. 2025-May-05 00:00:00.0000 TDB EC= 6.930663619539364E-01 QR= 8.051725845469893E+01 IN= 2.405219439540133E+01 OM= 9.080236516081484E+01 W = 2.938968942794657E+02 Tp= 2443909.914905840531 N = 2.321285279000651E-04 MA= 3.920786653278058E+00 TA= 2.895670548925593E+01 A = 2.623279056908556E+02 AD= 4.441385529270124E+02 PR= 1.550864959411562E+06 $$EOE ******************************************************************************* TIME Barycentric Dynamical Time ("TDB" or T_eph) output was requested. This continuous coordinate time is equivalent to the relativistic proper time of a clock at rest in a reference frame co-moving with the solar system barycenter but outside the system's gravity well. It is the independent variable in the solar system relativistic equations of motion. TDB runs at a uniform rate of one SI second per second and is independent of irregularities in Earth's rotation. CALENDAR SYSTEM Mixed calendar mode was active such that calendar dates after AD 1582-Oct-15 (if any) are in the modern Gregorian system. Dates prior to 1582-Oct-5 (if any) are in the Julian calendar system, which is automatically extended for dates prior to its adoption on 45-Jan-1 BC. The Julian calendar is useful for matching historical dates. The Gregorian calendar more accurately corresponds to the Earth's orbital motion and seasons. A "Gregorian-only" calendar mode is available if such physical events are the primary interest. REFERENCE FRAME AND COORDINATES Ecliptic at the standard reference epoch Reference epoch: J2000.0 X-Y plane: adopted Earth orbital plane at the reference epoch Note: IAU76 obliquity of 84381.448 arcseconds wrt ICRF X-Y plane X-axis : ICRF Z-axis : perpendicular to the X-Y plane in the directional (+ or -) sense of Earth's north pole at the reference epoch. Symbol meaning [1 au= 149597870.700 km, 1 day= 86400.0 s]: JDTDB Julian Day Number, Barycentric Dynamical Time EC Eccentricity, e QR Periapsis distance, q (au) IN Inclination w.r.t X-Y plane, i (degrees) OM Longitude of Ascending Node, OMEGA, (degrees) W Argument of Perifocus, w (degrees) Tp Time of periapsis (Julian Day Number) N Mean motion, n (degrees/day) MA Mean anomaly, M (degrees) TA True anomaly, nu (degrees) A Semi-major axis, a (au) AD Apoapsis distance (au) PR Sidereal orbit period (day) ABERRATIONS AND CORRECTIONS Geometric osculating elements have NO corrections or aberrations applied. Computations by ... Solar System Dynamics Group, Horizons On-Line Ephemeris System 4800 Oak Grove Drive, Jet Propulsion Laboratory Pasadena, CA 91109 USA General site: https://ssd.jpl.nasa.gov/ Mailing list: https://ssd.jpl.nasa.gov/email_list.html System news : https://ssd.jpl.nasa.gov/horizons/news.html User Guide : https://ssd.jpl.nasa.gov/horizons/manual.html Connect : browser https://ssd.jpl.nasa.gov/horizons/app.html#/x API https://ssd-api.jpl.nasa.gov/doc/horizons.html command-line telnet ssd.jpl.nasa.gov 6775 e-mail/batch https://ssd.jpl.nasa.gov/ftp/ssd/horizons_batch.txt scripts https://ssd.jpl.nasa.gov/ftp/ssd/SCRIPTS Author : Jon.D.Giorgini@jpl.nasa.gov ******************************************************************************* !$$SOF CENTER = '@0' COMMAND = '2012 VP113' OUT_UNITS = 'AU-D' START_TIME = 'JD2460800.5' STEP_SIZE = '1y' STOP_TIME = 'JD2460801.5' TABLE_TYPE = 'ELEMENTS'